Back to catalog

SL-14 DEB

AlivePO
NORAD 47089·DEBRIS·🇷🇺 Russia

Launched Aug 15, 1991 from Plesetsk Cosmodrome

Loading…

Next Passes (next 24 hours)

TLE

AgingSource: Space-Track

Epoch: Sep 9, 2026, 16:24 UTC

1 47089U 91056DP  26252.68377548  .00000028  00000-0  25202-4 0  9999
2 47089  82.6031  24.9898 0186947  16.7744 343.9460 13.38401421285689

Track SL-14 DEB in real time with AllMySat

Download on the App Store